Flag for Canada Weather past 2 weeks in Richmond, British Columbia, Canada

Now
59 °F

Light rain. Fog.


Feels Like: 56 °F
Forecast: 59 / 63 °F
Wind: 18 mph from Southeast

Location: Vancouver International Airport

Current Time: Aug 31, 2015 at 8:51:54 AM

Latest Report: Aug 31, 2015 at 8:00 AM


Visibility: 5 mi

Pressure: 29.83 "Hg

Humidity: 88%

Dew point: 55 °F

Location of RichmondLocation

Historic Weather in Richmond — Graph

°F

Richmond temperature yesterday

Maximum temperature yesterday: 66 °F (at 12:00 PM)
Minimum temperature yesterday: 57 °F (at 3:00 AM)
Average temperature yesterday: 61 °F

Past Weeks' High & Low Weather Summary

 TemperatureHumidityPressure
High75 °F (Aug 19, 5:00 PM)100% (Aug 28, 7:56 AM)30.27 "Hg (Aug 28, 7:56 AM)
Low54 °F (Aug 23, 4:00 AM)41% (Aug 24, 5:00 PM)29.40 "Hg (Aug 29, 12:00 PM)
Average64 °F73%29.95 "Hg
* Reported Aug 16 7:00 AM — Aug 31 7:00 AM, Richmond, Weather by CustomWeather, © 2015

Note: Actual official high and low records may vary slightly from our data, if they occured in-between our weather recording intervals... More about our weather records

Advertising

Richmond weather history for previous 24 hours

 ConditionsComfort  
Time TempWeatherWind HumidityBarometerVisibility
7:00 AM
Mon, Aug 31
59 °FLight rain. Passing clouds.15 mph88%29.83 "Hg6 mi
6:00 AM57 °FLight rain. Mostly cloudy.23 mph94%29.83 "Hg10 mi
5:00 AM59 °FLight rain. Mostly cloudy.21 mph82%29.83 "Hg12 mi
4:00 AM59 °FLight rain. Mostly cloudy.13 mph88%29.84 "Hg10 mi
3:00 AM59 °FLight rain. Mostly cloudy.10 mph88%29.85 "Hg8 mi
2:00 AM57 °FLight rain. Mostly cloudy.10 mph94%29.86 "Hg8 mi
1:00 AM59 °FLight rain. Mostly cloudy.14 mph88%29.87 "Hg8 mi
12:00 AM59 °FMostly cloudy.13 mph88%29.87 "Hg15 mi
11:00 PM
Sun, Aug 30
59 °FRain. Mostly cloudy.13 mph88%29.89 "Hg8 mi
10:00 PM59 °FLight rain. Mostly cloudy.8 mph82%29.90 "Hg10 mi
9:00 PM61 °FLight rain. Mostly cloudy.8 mph77%29.90 "Hg12 mi
8:00 PM61 °FLight rain. Overcast.10 mph77%29.90 "Hg12 mi
7:00 PM63 °FCloudy.15 mph68%29.89 "Hg20 mi
6:00 PM64 °FCloudy.17 mph64%29.89 "Hg20 mi
5:00 PM66 °FMostly cloudy.17 mph56%29.89 "Hg20 mi
4:00 PM66 °FMore clouds than sun.14 mph56%29.88 "Hg20 mi
3:00 PM66 °FMostly cloudy.17 mph60%29.88 "Hg20 mi
2:00 PM66 °FMostly cloudy.20 mph60%29.88 "Hg20 mi
1:00 PM66 °FPartly sunny.15 mph64%29.87 "Hg20 mi
12:00 PM66 °FBroken clouds.14 mph64%29.86 "Hg20 mi
11:00 AM63 °FBroken clouds.10 mph73%29.85 "Hg20 mi
10:00 AM61 °FBroken clouds.10 mph77%29.84 "Hg15 mi
9:00 AM59 °FMostly cloudy.9 mph82%29.82 "Hg15 mi
8:00 AM57 °FBroken clouds.10 mph88%29.79 "Hg12 mi
Weather by CustomWeather, © 2015

See weather overviewHow to use our weather pages